Location: Palomar Mountain Lodge
(33.3110°N, 116.8495°W)
Time: 00:08:55
(UTC-07:00)

Cosmos 1269 Rocket - Pass Details

Date: 14 June 2018
Orbit: 773 x 778 km, 74.1° (Epoch: 13 August)

Event Time Altitude Azimuth Distance (km) Brightness Sun altitude
Exits shadow 22:52:11 78° 250° (WSW) 796 3.9 -27.0°
Maximum altitude 22:52:25 80° 287° (WNW) 791 4.0 -27.1°
Drops below altitude 10° 22:57:43 10° 14° (NNE) 2,330 7.0 -27.6°
Sets 23:00:07 0° 16° (NNE) 3,261 7.9 -27.8°
